Regional Weather Roundup
Issued by NWS

Home | Current Version | Previous Version | Text Only | Print | Product List | Glossary Off
Versions: 1 2 3 4 5 6 7 8 9 10 11 12 13 14 15 16 17 18 19 20 21 22 23 24 25 26 27 28 29 30 31 32 33 34 35 36 37 38 39 40 41 42 43 44 45 46 47 48 49 50

000
ASUS43 KFSD 281510
RWRSD

WEATHER ROUNDUP FOR SOUTH DAKOTA
NATIONAL WEATHER SERVICE SIOUX FALLS SD
1000 AM CDT SAT MAY 28 2016

NOTE: "FAIR" INDICATES FEW OR NO CLOUDS BELOW 12,000 FEET WITH NO
SIGNIFICANT WEATHER AND/OR OBSTRUCTIONS TO VISIBILITY.


SDZ001>005-009-010-012>017-281600-
NORTHWEST AND NORTH CENTRAL SOUTH DAKOTA

CITY           SKY/WX    TMP DP  RH WIND       PRES   REMARKS
BUFFALO          N/A     64  49  57 NW3       29.84R
FAITH            N/A     65  48  54 NW5       29.88S
MOBRIDGE       CLOUDY    61  53  75 NW7       29.83R
$$

SDZ012>016-024>037-041>051-057-063-072>074-281600-
SOUTHWEST AND SOUTH CENTRAL SOUTH DAKOTA

CITY           SKY/WX    TMP DP  RH WIND       PRES   REMARKS
RAPID CTY ARPT SUNNY     64  47  53 NW3       29.91R
PIERRE         CLOUDY    61  54  77 NW10      29.83R
CUSTER         PTSUNNY   58  37  45 E5        29.97R
ELLSWORTH AFB  SUNNY     63  48  59 CALM      29.90S
PHILIP         CLOUDY    57  54  89 W3        29.88R
PINE RIDGE     SUNNY     60  48  64 VRB3      29.91S
WINNER         CLOUDY    60  54  80 NW6       29.85R
$$

SDZ004>011-016>023-039-040-281600-
NORTHEAST SOUTH DAKOTA

CITY           SKY/WX    TMP DP  RH WIND       PRES   REMARKS
ABERDEEN       LGT RAIN  62  59  90 NE10      29.83R
WATERTOWN      CLOUDY    60  57  89 NE12      29.80S
BROOKINGS      RAIN      59  58  96 NE10      29.78R
SISSETON         N/A     64  55  72 E8        29.80R
$$

SDZ017-020-022-023-036>040-048>070-281600-
SOUTHEAST SOUTH DAKOTA

CITY           SKY/WX    TMP DP  RH WIND       PRES   REMARKS
SIOUX FALLS    RAIN      60  58  92 NE8       29.76S FOG
HURON          CLOUDY    60  59  96 NW10G25   29.79S FOG
CHAMBERLAIN    CLOUDY    61  60  95 NW6       29.83R
MITCHELL       LGT RAIN  61  60  97 N7        29.79S FOG
YANKTON        MOSUNNY   63  57  82 N15G23    29.74S
$$

ABBREVIATIONS USED IN REMARKS
   TC - TEMPERATURE IN CELSIUS
  WCI - WIND CHILL INDEX
   HX - HEAT INDEX
  VSB - VISIBILITY




USA.gov is the U.S. government's official web portal to all federal, state and local government web resources and services.